Location: Unspecified
(0.0000°N, 0.0000°E)
Time: 20:05:04
(UTC+00:00)

BlueWalker 3 - Pass Details

Date: 23 March 2026
Orbit: 449 x 457 km, 53.2° (Epoch: 21 April)

Event Time Altitude Azimuth Distance (km) Brightness Sun altitude
Exits shadow 05:24:53 - 308° (NW) 1,650 4.1 -10.4°
Reaches altitude 10° 05:25:04 10° 307° (NW) 1,581 4.0 -10.4°
Maximum altitude 05:28:25 39° 236° (SW) 687 2.2 -9.6°
Drops below altitude 10° 05:31:46 10° 166° (SSE) 1,583 4.6 -8.7°
Sets 05:33:59 0° 158° (SSE) 2,455 5.7 -8.2°
